TimeEST,TemperatureF,Dew PointF,Humidity,Sea Level PressureIn,VisibilityMPH,Wind Direction,Wind SpeedMPH,Gust SpeedMPH,PrecipitationIn,Events,Conditions,WindDirDegrees,DateUTC
12:53 AM,21.0,19.0,92,30.35,10.0,Calm,Calm,-,N/A,,Clear,0,2012-11-16 05:53:00
1:53 AM,24.1,19.9,84,30.35,10.0,SW,3.5,-,N/A,,Clear,230,2012-11-16 06:53:00
2:53 AM,19.9,17.1,89,30.35,10.0,Calm,Calm,-,N/A,,Clear,0,2012-11-16 07:53:00
3:53 AM,19.9,18.0,92,30.35,10.0,Calm,Calm,-,N/A,,Clear,0,2012-11-16 08:53:00
4:53 AM,21.0,17.1,85,30.37,10.0,Calm,Calm,-,N/A,,Clear,0,2012-11-16 09:53:00
5:53 AM,21.0,18.0,88,30.39,10.0,Calm,Calm,-,N/A,,Clear,0,2012-11-16 10:53:00
6:53 AM,24.1,21.9,91,30.40,10.0,SW,3.5,-,N/A,,Clear,230,2012-11-16 11:53:00
7:53 AM,25.0,21.9,88,30.42,10.0,West,3.5,-,N/A,,Clear,280,2012-11-16 12:53:00
8:53 AM,28.9,26.1,89,30.43,10.0,West,3.5,-,N/A,,Clear,280,2012-11-16 13:53:00
9:53 AM,32.0,27.0,82,30.43,10.0,Calm,Calm,-,N/A,,Clear,0,2012-11-16 14:53:00
10:53 AM,37.0,30.0,76,30.44,10.0,Calm,Calm,-,N/A,,Clear,0,2012-11-16 15:53:00
11:53 AM,43.0,30.0,60,30.42,10.0,NE,11.5,-,N/A,,Partly Cloudy,40,2012-11-16 16:53:00
12:53 PM,44.1,28.9,55,30.41,10.0,NE,9.2,17.3,N/A,,Clear,50,2012-11-16 17:53:00
1:53 PM,44.1,28.0,53,30.41,10.0,NE,10.4,-,N/A,,Clear,50,2012-11-16 18:53:00
2:53 PM,45.0,28.9,53,30.41,10.0,NE,9.2,-,N/A,,Clear,50,2012-11-16 19:53:00
3:53 PM,44.1,28.9,55,30.43,10.0,NE,8.1,-,N/A,,Clear,40,2012-11-16 20:53:00
4:53 PM,39.0,28.9,67,30.45,10.0,NNE,5.8,-,N/A,,Clear,20,2012-11-16 21:53:00
5:53 PM,33.1,27.0,78,30.47,10.0,Calm,Calm,-,N/A,,Clear,0,2012-11-16 22:53:00
6:53 PM,30.9,26.1,82,30.48,10.0,Calm,Calm,-,N/A,,Clear,0,2012-11-16 23:53:00
7:53 PM,27.0,24.1,89,30.50,10.0,Calm,Calm,-,N/A,,Clear,0,2012-11-17 00:53:00
8:53 PM,27.0,24.1,89,30.52,9.0,Calm,Calm,-,N/A,,Clear,0,2012-11-17 01:53:00
9:53 PM,25.0,21.9,88,30.53,9.0,Calm,Calm,-,N/A,,Clear,0,2012-11-17 02:53:00
10:53 PM,27.0,24.1,89,30.53,9.0,SW,3.5,-,N/A,,Clear,230,2012-11-17 03:53:00
11:53 PM,25.0,23.0,92,30.54,6.0,Calm,Calm,-,N/A,,Clear,0,2012-11-17 04:53:00